Location: Fisheating Creek Campgrounds
(26.9333°N, 81.3167°W)
Time: 02:04:32
(UTC-04:00)

Cosmos 2221 Rocket - Visible Passes

Search period start: 24 May 2016 00:00
Search period end: 03 June 2016 00:00
Orbit: 620 x 649 km, 82.5° (Epoch: 22 May)

Date Brightness Start Highest point End Pass type
(mag) Time Alt. Az. Time Alt. Az. Time Alt. Az.
24 May 4.1 04:38:59 10° N 04:43:25 58° E 04:46:52 16° SSE visible
25 May 3.7 05:01:14 10° NNW 05:05:39 57° W 05:07:59 26° SSW visible
26 May 6.0 03:46:28 10° NNE 03:49:43 19° ENE 03:51:48 15° ESE visible
26 May 4.8 05:24:10 10° NW 05:27:46 24° W 05:29:14 20° WSW visible
27 May 4.6 04:07:47 10° N 04:12:06 45° E 04:13:10 37° ESE visible
28 May 3.4 04:29:52 10° N 04:34:22 74° W 04:34:37 71° SW visible
29 May 6.2 03:15:42 10° NE 03:18:22 15° ENE 03:18:41 15° E visible
29 May 4.6 04:52:35 10° NNW 04:56:08 30° W 04:56:08 30° W visible
30 May 5.1 03:36:38 10° NNE 03:40:17 34° ENE 03:40:17 34° ENE visible
30 May 5.7 05:16:31 10° WNW 05:17:43 12° WNW 05:17:43 12° WNW visible
31 May 4.3 03:58:32 10° N 04:01:55 50° N 04:01:55 50° N visible
01 Jun 6.5 02:45:13 10° NE 02:46:09 12° ENE 02:46:09 12° ENE visible
01 Jun 5.0 04:21:04 10° NNW 04:23:36 28° NW 04:23:36 28° NW visible
02 Jun 5.9 03:05:34 10° NNE 03:07:53 23° NE 03:07:53 23° NE visible
02 Jun 5.8 04:44:28 10° NW 04:45:20 13° WNW 04:45:20 13° WNW visible
